Find Local Weather

World > North America > United States > Florida

Key Biscayne, Florida Regional Weather

Lat: 25.69N, Lon: 80.16W
Wx Zone: FLZ173
Warning FLW WEATHER ALERT - (More Info. Click Here) Warning
Feedback
Expires:201808220200;;433665
ASUS42 KTBW 220116
RWRFL 
FLORIDA REGIONAL WEATHER ROUNDUP
NATIONAL WEATHER SERVICE TAMPA BAY RUSKIN FL
900 PM EDT TUE AUG 21 2018

NOTE: "FAIR" INDICATES FEW OR NO CLOUDS BELOW 12,000 FEET WITH NO
SIGNIFICANT WEATHER AND/OR OBSTRUCTIONS TO VISIBILITY.


FLZ067-068-071>074-168-172>174-220200-
SOUTHEAST FLORIDA 
  
CITY           SKY/WX    TMP DP  RH WIND       PRES   REMARKS
W PALM BEACH   FAIR      83  72  69 E7        30.10R                  
BOCA RATON     CLEAR     82  72  69 SE6       30.09R                  
FT LAUDER-EXEC FAIR      84  75  74 E9        30.09R                  
FT LAUDERDALE  FAIR      84  77  79 E10       30.08R                  
PEMBROKE PINES FAIR      85  74  69 E9        30.10R                  
OPA LOCKA      FAIR      83  75  77 E9        30.09R                  
MIAMI          FAIR      83  76  79 E8        30.09R                  
WEST KENDALL   FAIR      82  75  79 E8        30.09R                  
HOMESTEAD      FAIR      83  74  74 E3        30.09R                  

STATION/POSITION SKY/WX   TEMP    WIND        PRES    WAVE   SWELL
                          AIR SEA DIR/SP/G            HT/PER HT/PER
                          (F)     (DEG/KT/KT) (MB)    (FT/S) (FT/S)
PORT EVERGLADES            85      80/  6/  9 1018.3
VIRGINIA KEY               85 89   60/  7/  9 1018.4R
LAKE WORTH                 83 85  110/  7/ 10 1020.1R

$$

  

SKY/WX - Weather  TMP - Temperature  DP - Dewpoint  RH - Relative Humidity
WIND - Wind Direction/Speed PRES - Barometric Pressure